Regional Weather Roundup
Issued by NWS

Home | Current Version | Previous Version | Text Only | Print | Product List | Glossary Off
Versions: 1 2 3 4 5 6 7 8 9 10 11 12 13 14 15 16 17 18 19 20 21 22 23 24 25 26 27 28 29 30 31 32 33 34 35 36 37 38 39 40 41 42 43 44 45 46 47 48 49 50

000
ASUS43 KMPX 290210
RWRMN
WEATHER ROUNDUP FOR MINNESOTA
NATIONAL WEATHER SERVICE TWIN CITIES/CHANHASSEN MN
800 PM CST SUN DEC 28 2014


NOTE: "FAIR" INDICATES FEW OR NO CLOUDS BELOW 12,000 FEET WITH NO
SIGNIFICANT WEATHER AND/OR OBSTRUCTIONS TO VISIBILITY. N/A MEANS
CURRENT SKY AND/OR WEATHER CONDITIONS ARE NOT AVAILABLE.

MNZ060>063-068>070-290300-
   Twin Cities Metro

CITY           SKY/WX    TMP DP  RH WIND       PRES   REMARKS
TWIN CITIES    PTCLDY    15   6  67 N8        30.29R WCI   4
ST PAUL        CLEAR     15   6  67 N7        30.31R WCI   5
CRYSTAL        CLEAR     13   2  61 N6        30.28R WCI   4
BLAINE         CLEAR    N/A N/A N/A N5        30.29R
LAKEVILLE      PTCLDY    12   9  85 CALM      30.27R
EDEN PRAIRIE   PTCLDY    16   5  62 N8        30.27R WCI   5
SOUTH ST PAUL  CLEAR     16   7  66 CALM      30.30R
LAKE ELMO      FAIR      12   9  85 N5        30.29R WCI   4
$$
MNZ001>005-007-008-013>017-022>024-027-028-290300-
   Northwest Minnesota

CITY           SKY/WX    TMP DP  RH WIND       PRES   REMARKS
BEMIDJI        CLEAR     -4  -9  82 W7        30.33R WCI -18
HALLOCK        PTCLDY    -8 -13  77 N8        30.44S WCI -23
ROSEAU         CLEAR     -8 -13  77 NW8       30.40R WCI -23
WARROAD        CLEAR     -8 -15  71 NW13      30.38R WCI -28
THIEF RVR FALL CLEAR     -8 -11  84 NW8       30.40R WCI -23
CROOKSTON      FAIR      -6 -11  77 N9        30.45S WCI -22
FOSSTON        CLEAR     -9 -13  84 CALM      30.37R
DETROIT LAKES  CLEAR      1  -4  78 N7        30.35R WCI -11
MOORHEAD       CLEAR     -2  -6  84 N12       30.42R WCI -20
PARK RAPIDS    CLEAR      1  -6  72 NW8       30.31R WCI -13
MAHNOMEN       FAIR      -5  -9  81 N7        30.37R WCI -19
$$
MNZ006-009>011-018-025>026-290300-
   North Central Minnesota

CITY           SKY/WX    TMP DP  RH WIND       PRES   REMARKS
BAUDETTE       PTCLDY    -5 -11  75 W3        30.34R
FLAG ISLAND    CLEAR     -9 -15  77 NW20      30.36R WCI -34
INTL FALLS     CLEAR     -6 -12  75 NW7       30.32R WCI -20
WASKISH        CLEAR     -2  -8  78 CALM      30.35R
BIG FORK       CLEAR     -2  -9  71 CALM      30.32R
LONGVILLE      CLEAR      1  -6  71 CALM      30.31R
GRAND RAPIDS   CLEAR      1  -6  71 N14       30.28R WCI -17
CRANE LAKE     CLEAR     -4  -9  77 W3        30.33R
ORR            CLEAR     -4 -11  71 NW8       30.27R WCI -19
COOK           CLEAR     -4  -9  77 W5        30.29R WCI -15
WALKER         FAIR      -1  -7  77 NW5       30.32R WCI -11
$$
MNZ012-019>021-037-290300-
   Northeast Minnesota

CITY           SKY/WX    TMP DP  RH WIND       PRES   REMARKS
DULUTH         CLEAR      4  -6  63 NW8       30.24R WCI  -9
ELY            CLEAR     -4  -9  77 NW3       30.26R
HIBBING        CLEAR     -2  -9  72 NW7       30.29R WCI -15
EVELETH        CLEAR      3  -6  66 NW6       30.29R WCI  -8
DULUTH HARBOR  CLEAR     10  -2  56 CALM      30.34S
TWO HARBORS    CLEAR      7  -2  66 CALM      30.25R
SILVER BAY     CLEAR      5  -6  61 NW3       30.24R
GRAND MARAIS     N/A      4  -6  63 W5        30.30R WCI  -5
G MARAIS ARPRT PTCLDY    -6 -11  77 NW7G20    30.14R WCI -20
$$
MNZ029>031-032-039>041-046>048-054>057-064-290300-
   West Central Minnesota

CITY           SKY/WX    TMP DP  RH WIND       PRES   REMARKS
FERGUS FALLS   CLEAR      3  -4  72 N10       30.38R WCI -12
WHEATON        PTCLDY     3  -2  78 N15       30.37R WCI -15
MORRIS         PTCLDY     9   3  78 N13       30.30R WCI  -7
ALEXANDRIA     PTCLDY    11   1  64 N9        30.28R WCI  -2
ELBOW LAKE     FAIR       7   2  80 N8        30.31S WCI  -5
WADENA         CLEAR      5  -2  72 N6        30.30S WCI  -6
GLENWOOD       PTCLDY    10   1  67 N9        30.28R WCI  -2
APPLETON       PTCLDY    10   5  79 N15       30.31R WCI  -6
BENSON         PTCLDY    10   5  79 N6        30.30R WCI   1
ORTONVILLE     CLOUDY     9   1  72 N14       30.32R WCI  -8
MADISON        PTCLDY    14   9  79 N13       30.32R WCI   0
WILLMAR        FAIR      14   5  67 N7        30.29R WCI   4
$$
MNZ033>034-036-042>043-049>051-058-059-290300-
   Central Minnesota

CITY           SKY/WX    TMP DP  RH WIND       PRES   REMARKS
ST CLOUD       CLEAR     14   1  56 N6        30.29R WCI   5
SAUK CENTRE    FAIR      10   0  62 N9        30.28S WCI  -3
PAYNESVILLE    PTCLDY     9   2  72 NW5       30.28R WCI   1
AITKIN         CLEAR      7  -2  66 CALM      30.30R
PINE RIVER     CLEAR      3  -2  78 CALM      30.34R
BRAINERD       CLEAR      6  -3  66 N6        30.31R WCI  -4
STAPLES        CLEAR      7  -2  66 N3        30.30S
LONG PRAIRIE   FAIR      10   1  67 NW7       30.29S WCI   0
LITTLE FALLS   CLEAR     10   0  61 N3        30.31R
LITCHFIELD     PTCLDY    12   5  73 CALM      30.28R
BUFFALO        PTCLDY    11   0  61 N6        30.30R WCI   2
MAPLE LAKE     PTCLDY    11   4  71 N5        30.30R WCI   3
$$
MNZ037-044-045-052-053-290300-
   East Central Minnesota

CITY           SKY/WX    TMP DP  RH WIND       PRES   REMARKS
PRINCETON      CLEAR     10   1  67 N5        30.29R WCI   2
MORA           CLEAR     10   0  61 CALM      30.32R
CAMBRIDGE      CLEAR     12   1  62 N3        30.28R
RUSH CITY      CLEAR      9   0  66 N8        30.30S WCI  -3
MOOSE LAKE     PTCLDY     3  -4  72 CALM      30.30R
HINCKLEY       FAIR      10   0  61 CALM      30.31R
CLOQUET        CLEAR      3  -6  66 NW7       30.27R WCI  -9
MCGREGOR       CLEAR      5   0  78 NW3       30.31R
$$
MNZ071>073-080-081-089-090-097-098-290300-
   Southwest Minnesota

CITY           SKY/WX    TMP DP  RH WIND       PRES   REMARKS
MONTEVIDEO     MOCLDY    12   9  85 N7        30.31R WCI   2
GRANITE FALLS  MOCLDY    15  10  82 NW10      30.30R WCI   2
CANBY          CLOUDY    10   6  82 N10       30.31R WCI  -3
MARSHALL       CLOUDY    12   7  79 N15       30.27R WCI  -4
REDWOOD FALLS  CLOUDY    19  13  77 NE5       30.27R WCI  12
OLIVIA         MOCLDY    16  12  86 N7        30.27R WCI   6
PIPESTONE      CLOUDY    16  12  86 NE9       30.22R WCI   4
WINDOM         CLOUDY    19  18  93 CALM      30.23R
WORTHINGTON    CLOUDY    18 -27  12 NE13      30.23R WCI   4
JACKSON        CLOUDY    19  18  93 NE7       30.22R WCI  10
TRACY          CLOUDY    17  14  88 N10       30.25R WCI   4
SLAYTON        CLOUDY    15  13  92 N8        30.24R WCI   4
$$
MNZ065>067-074>077-082>085-091>093-290300-
   South Central Minnesota

CITY           SKY/WX    TMP DP  RH WIND       PRES   REMARKS
MANKATO        PTCLDY    14  10  85 N7        30.25R WCI   4
NEW ULM        PTCLDY    16  12  86 NE5       30.26R WCI   9
ST JAMES       FOG       14  10  85 CALM      30.27R VSB 1/4
FAIRMONT       CLOUDY    16  12  86 N8        30.23R VSB 1   WCI   5
GLENCOE        PTCLDY    15   9  76 N3        30.27R
FARIBAULT      PTCLDY    10   9  92 CALM      30.26R FOG
OWATONNA       PTCLDY    12  10  92 E3        30.24R
WASECA         MOCLDY    14  10  85 CALM      30.26R
ALBERT LEA     PTCLDY    12  10  92 N5        30.23R WCI   4
$$
MNZ078>079-086>088-094>096-290300-
   Southeast Minnesota

CITY           SKY/WX    TMP DP  RH WIND       PRES   REMARKS
ROCHESTER      PTCLDY    13  10  88 N6        30.23R WCI   4
RED WING       PTCLDY     9   5  85 N3        30.28R
STANTON        PTCLDY     7   4  84 NE5       30.26R FOG     WCI  -1
DODGE CENTER   PTCLDY    12  12 100 NE5       30.23R FOG     WCI   4
WINONA         CLEAR     14  12  92 CALM      30.28R
AUSTIN         PTCLDY    12  10  92 CALM      30.23R
PRESTON        FAIR      13  10  89 N7        30.23R WCI   3
$$
ABBREVIATIONS USED IN REMARKS
   TC - TEMPERATURES IN CELSIUS
  WCI - WIND CHILL INDEX
   HX - HEAT INDEX
  VSB - VISIBILITY
$$



USA.gov is the U.S. government's official web portal to all federal, state and local government web resources and services.